sat.trackr.live / text

‹ back to catalog

STARLINK-31511

NORAD 59462 · 2024-068H

PAYLOAD ACTIVE UNKNOWN

§ Identity

Operator
Country
US
Launch date
2024-04-10
Launch site
AFETR
Launch vehicle
Mass (kg)
RCS (m²)

Purposes: comms

External: N2YO · Heavens-Above · Gunter

§ Orbital elements

Epoch: 2026-05-24T19:37:33.395232Z

Period
94.27 min
Inclination
43.0028°
Eccentricity
0.0001215
Mean motion
15.27581381 rev/d
Perigee alt
482.2 km
Apogee alt
483.9 km
Semi-major
6,861.2 km
B*
8.5583e-5
RAAN
324.7530°
Arg perigee
285.7098°
Mean anomaly
74.3619°
Rev number
12,016

§ Raw data

STARLINK-315111 59462U 24068H   26144.81774763  .00002094  00000+0  85583-4 0  99932 59462  43.0028 324.7530 0001215 285.7098  74.3619 15.27581381120168

JSON: /api/v1/satellites/59462 · /tle

For live sub-satellite position, see the globe view (requires WebGL).

§ Visibility from observer

Set your observer location to see the next 7 days of passes ≥ 10°. The values pass through the URL so the page stays shareable.

No JS? Fill the form by hand. The geolocation button needs JavaScript.